Nellis AFB, NV

3:00 AM PST on December 10, 2019 (GMT -0800)
Nellis Air Force Base

Weather History for KLSV - September, 2019

Change the Weather History Date:

Tuesday, September 10, 2019

  Actual Average Record
Temperature  
Mean Temperature 84 °F -  
Max Temperature 93 °F 94 °F 105 °F (1997)
Min Temperature 75 °F 70 °F 62 °F (2001)
Cooling Degree Days 18    
Growing Degree Days 34 (Base 50)    
Moisture  
Dew Point 40 °F    
Average Humidity 22    
Maximum Humidity 32    
Minimum Humidity 10    
Precipitation  
Precipitation 0.00 in - - ()
Sea Level Pressure  
Sea Level Pressure 29.65 in    
Wind  
Wind Speed 12 mph (SSE)    
Max Wind Speed 26 mph    
Max Gust Speed 33 mph    
Visibility 10 miles    
Events      
Averages and records for this station are not official NWS values.
T = Trace of Precipitation, MM = Missing Value Source: NWS Daily Summary

Daily Weather History Graph

Daily Weather History Graph

Search for Another Location

Airport or City:

Astronomy

Sep. 10, 2019 Rise Set
Actual Time 6:18 AM PDT 6:55 PM PDT
Civil Twilight 5:52 AM PDT 7:20 PM PDT
Nautical Twilight 5:22 AM PDT 7:51 PM PDT
Astronomical Twilight 4:50 AM PDT 8:22 PM PDT
Moon 5:27 PM PDT 2:56 AM PDT
Length of Visible Light 13h 28m
Length of Day
12h 36m
Waxing Gibbous, 90% of the Moon is Illuminated
Sep 10
Waxing Gibbous
Sep 13
Full
Sep 21
Last Quarter
Sep 28
New
Oct 5
First Quarter

Hourly Weather History & Observations

Time (PDT) Temp. Dew Point Humidity Pressure Visibility Wind Dir Wind Speed Gust Speed Precip Events Conditions
12:58 AM 84.6 °F 45.9 °F 26% 29.63 in 10.0 mi SE 9.2 mph - N/A   Clear
1:58 AM 81.5 °F 46.2 °F 29% 29.63 in 10.0 mi SSE 4.6 mph - N/A   Clear
2:58 AM 80.8 °F 45.5 °F 29% 29.65 in 10.0 mi SSE 11.5 mph - N/A   Clear
3:58 AM 78.4 °F 46.0 °F 32% 29.65 in 10.0 mi ESE 6.9 mph - N/A   Clear
4:58 AM 77.5 °F 44.4 °F 31% 29.66 in 10.0 mi SSE 6.9 mph - N/A   Clear
5:58 AM 75.9 °F 43.2 °F 31% 29.67 in 10.0 mi ESE 5.8 mph - N/A   Clear
6:58 AM 77.2 °F 43.3 °F 30% 29.69 in 10.0 mi South 9.2 mph - N/A   Clear
7:58 AM 79.2 °F 43.2 °F 28% 29.71 in 10.0 mi SSE 10.4 mph - N/A   Unknown
8:58 AM 80.6 °F 45.3 °F 29% 29.73 in 10.0 mi SSE 11.5 mph - N/A   Clear
9:58 AM 82.6 °F 44.2 °F 26% 29.72 in 10.0 mi SE 15.0 mph - N/A   Clear
10:58 AM 85.5 °F 43.3 °F 23% 29.72 in 10.0 mi South 15.0 mph - N/A   Clear
11:58 AM 88.5 °F 43.5 °F 21% 29.70 in 10.0 mi South 16.1 mph 21.9 mph N/A   Clear
12:55 PM 91.4 °F 41.0 °F 17% 29.67 in 10.0 mi SSE 16.1 mph - N/A   Clear
12:58 PM 90.5 °F 41.2 °F 18% 29.67 in 10.0 mi South 17.3 mph 25.3 mph N/A   Clear
1:58 PM 92.7 °F 36.5 °F 14% 29.62 in 10.0 mi South 21.9 mph 29.9 mph N/A   Clear
2:58 PM 92.8 °F 32.7 °F 12% 29.60 in 10.0 mi South 23.0 mph 32.2 mph N/A   Clear
3:58 PM 92.1 °F 30.0 °F 11% 29.61 in 10.0 mi SSW 19.6 mph 33.4 mph N/A   Clear
4:58 PM 91.2 °F 27.0 °F 10% 29.61 in 10.0 mi SSW 24.2 mph 29.9 mph N/A   Clear
5:58 PM 89.8 °F 30.4 °F 12% 29.59 in 10.0 mi SSW 26.5 mph 32.2 mph N/A   Clear
6:58 PM 87.4 °F 35.8 °F 16% 29.59 in 10.0 mi South 20.7 mph 26.5 mph N/A   Clear
7:58 PM 86.2 °F 39.0 °F 19% 29.60 in 10.0 mi South 16.1 mph - N/A   Clear
8:58 PM 82.4 °F 39.7 °F 22% 29.62 in 10.0 mi SSE 5.8 mph - N/A   Clear
9:58 PM 83.3 °F 35.4 °F 18% 29.64 in 10.0 mi South 17.3 mph - N/A   Clear
10:58 PM 81.9 °F 36.9 °F 20% 29.65 in 10.0 mi SSE 13.8 mph - N/A   Clear
11:58 PM 79.7 °F 38.7 °F 23% 29.67 in 10.0 mi SSE 11.5 mph - N/A   Clear